Flag for U.S.A. Weather past 2 weeks in Worcester, Massachusetts, U.S.A.

Now
62 °F

Sunny.


Feels Like: 62 °F
Forecast: 50 / 80 °F
Wind: 18 mph from West

Location: Worcester Regional Airport

Current Time: May 24, 2015 at 9:41:11 AM

Latest Report: May 24, 2015 at 8:54 AM


Visibility: 10 mi

Pressure: 30.29 "Hg

Humidity: 34%

Dew point: 33 °F

Location of WorcesterLocation

Historic Weather in Worcester — Graph

°F

Worcester temperature yesterday

Maximum temperature yesterday: 61 °F (at 4:54 PM)
Minimum temperature yesterday: 38 °F (at 5:54 AM)
Average temperature yesterday: 50 °F

Past Weeks' High & Low Weather Summary

 TemperatureHumidityPressure
High84 °F (May 10, 3:54 PM)97% (May 12, 8:54 AM)30.36 "Hg (May 12, 8:54 AM)
Low38 °F (May 23, 5:54 AM)17% (May 15, 3:54 PM)29.67 "Hg (May 12, 4:54 PM)
Average60 °F57%30.08 "Hg
* Reported May 9 7:54 AM — May 24 7:54 AM, Worcester, Weather by CustomWeather, © 2015

Note: Actual official high and low records may vary slightly from our data, if they occured in-between our weather recording intervals... More about our weather records

Advertising

Worcester weather history for previous 24 hours

 ConditionsComfort  
Time TempWeatherWind HumidityBarometerVisibility
7:54 AM
Sun, May 24
58 °FSunny.16 mph39%30.28 "Hg10 mi
6:54 AM53 °FSunny.15 mph47%30.29 "Hg10 mi
5:54 AM50 °FClear.15 mph50%30.28 "Hg10 mi
4:54 AM50 °FClear.14 mph48%30.28 "Hg10 mi
3:54 AM50 °FClear.15 mph48%30.27 "Hg10 mi
2:54 AM48 °FClear.17 mph59%30.28 "Hg10 mi
1:54 AM48 °FClear.15 mph56%30.29 "Hg10 mi
12:54 AM48 °FClear.13 mph52%30.30 "Hg10 mi
11:54 PM
Sat, May 23
47 °FClear.7 mph50%30.31 "Hg10 mi
10:54 PM49 °FClear.7 mph44%30.31 "Hg10 mi
9:54 PM50 °FClear.8 mph41%30.31 "Hg10 mi
8:54 PM53 °FSunny.5 mph34%30.30 "Hg10 mi
7:54 PM55 °FSunny.8 mph30%30.30 "Hg10 mi
6:54 PM59 °FSunny.14 mph23%30.30 "Hg10 mi
5:54 PM61 °FSunny.16 mph22%30.29 "Hg10 mi
4:54 PM61 °FSunny.14 mph22%30.30 "Hg10 mi
3:54 PM60 °FSunny.12 mph20%30.31 "Hg10 mi
2:54 PM59 °FSunny.13 mph21%30.32 "Hg10 mi
1:54 PM55 °FSunny.10 mph25%30.33 "Hg10 mi
12:54 PM54 °FSunny.9 mph25%30.33 "Hg10 mi
11:54 AM51 °FSunny.17 mph28%30.34 "Hg10 mi
10:54 AM49 °FSunny.8 mph33%30.33 "Hg10 mi
9:54 AM47 °FSunny.12 mph34%30.33 "Hg10 mi
Weather by CustomWeather, © 2015

See weather overviewHow to use our weather pages